Location: Newark
(35.5300°N, 14.3000°E)
Time: 20:35:10
(UTC+00:00)

Transit 4A - Pass Details

Date: 30 November 2019
Orbit: 872 x 973 km, 66.8° (Epoch: 28 January)

Event Time Altitude Azimuth Distance (km) Brightness Sun altitude
Exits shadow 05:21:06 - 291° (WNW) 2,713 9.6 -6.6°
Reaches altitude 10° 05:22:11 10° 282° (WNW) 2,520 9.5 -6.4°
Maximum altitude 05:24:30 13° 258° (WSW) 2,336 9.5 -6.0°
Drops below altitude 10° 05:26:50 10° 234° (SW) 2,512 9.9 -5.6°
Sets 05:30:53 0° 206° (SSW) 3,449 10.9 -4.8°
